| time (UTC) | temp F | wind direction | speed knots | gust knots | rain 1hr in | rain 24hr in | rain mn in | humidity % | barometer mb |
| 20260503195023 | 63 | 216 | 2.6 | 7.8 | 0.00 | 0.00 | 0.00 | 71 | 1015.9 |
| 20260503194017 | 63 | 188 | 1.7 | 6.1 | 0.00 | 0.00 | 0.00 | 72 | 1015.8 |
| 20260503193035 | 63 | 141 | 2.6 | 5.2 | 0.00 | 0.00 | 0.00 | 70 | 1016.0 |
| 20260503192027 | 63 | 141 | 1.7 | 5.2 | 0.00 | 0.00 | 0.00 | 73 | 1015.9 |
| 20260503191021 | 61 | 204 | 1.7 | 5.2 | 0.00 | 0.00 | 0.00 | 73 | 1016.0 |
| 20260503190015 | 62 | 151 | 1.7 | 2.6 | 0.00 | 0.00 | 0.00 | 70 | 1016.1 |
| 20260503185031 | 62 | 142 | 3.5 | 8.7 | 0.00 | 0.00 | 0.00 | 74 | 1016.0 |
| 20260503184045 | 60 | 174 | 1.7 | 3.5 | 0.00 | 0.00 | 0.00 | 79 | 1016.0 |
| 20260503183020 | 58 | 192 | 4.3 | 7.0 | 0.00 | 0.00 | 0.00 | 82 | 1015.9 |
| 20260503182035 | 58 | 158 | 1.7 | 3.5 | 0.00 | 0.00 | 0.00 | 83 | 1016.0 |
| 20260503181029 | 58 | 171 | 1.7 | 5.2 | 0.00 | 0.00 | 0.00 | 84 | 1015.9 |
| 20260503180044 | 57 | 157 | 1.7 | 3.5 | 0.00 | 0.00 | 0.00 | 84 | 1015.9 |
| 20260503175018 | 58 | 212 | 1.7 | 3.5 | 0.00 | 0.00 | 0.00 | 84 | 1015.7 |
| 20260503174113 | 57 | 195 | 1.7 | 5.2 | 0.00 | 0.00 | 0.00 | 85 | 1015.7 |
| 20260503173028 | 57 | 178 | 1.7 | 5.2 | 0.00 | 0.00 | 0.00 | 85 | 1015.6 |
| 20260503172023 | 57 | 184 | 1.7 | 6.1 | 0.00 | 0.00 | 0.00 | 84 | 1015.7 |
| 20260503171018 | 57 | 171 | 2.6 | 5.2 | 0.00 | 0.00 | 0.00 | 85 | 1015.7 |
| 20260503131030 | 52 | 143 | 1.7 | 6.1 | 0.00 | 0.00 | 0.00 | 92 | 1013.6 |
| 20260503081034 | 52 | 183 | 1.7 | 5.2 | 0.00 | 0.00 | 0.00 | 91 | 1014.3 |
| 20260503072027 | 53 | 172 | 0.9 | 2.6 | 0.00 | 0.00 | 0.00 | 91 | 1014.4 |
| 20260503071021 | 53 | 163 | 0.9 | 1.7 | 0.00 | 0.00 | 0.00 | 91 | 1014.4 |
| 20260503055040 | 53 | 178 | 0.0 | 1.7 | 0.00 | 0.00 | 0.00 | 91 | 1014.9 |
| 20260503054035 | 53 | 183 | 0.9 | 1.7 | 0.00 | 0.00 | 0.00 | 91 | 1014.9 |
| 20260503053050 | 53 | 172 | 0.9 | 2.6 | 0.00 | 0.00 | 0.00 | 91 | 1014.7 |
| 20260503052024 | 53 | 159 | 0.9 | 2.6 | 0.00 | 0.00 | 0.00 | 91 | 1014.8 |
| 20260503051018 | 53 | 196 | 0.9 | 3.5 | 0.00 | 0.00 | 0.00 | 91 | 1014.9 |
| 20260503050033 | 53 | 176 | 0.9 | 3.5 | 0.00 | 0.00 | 0.00 | 91 | 1014.8 |
| 20260503045028 | 53 | 162 | 0.9 | 3.5 | 0.00 | 0.00 | 0.00 | 91 | 1014.8 |
| 20260503044021 | 53 | 134 | 1.7 | 3.5 | 0.00 | 0.00 | 0.00 | 91 | 1014.7 |
| 20260503043016 | 53 | 180 | 0.9 | 3.5 | 0.00 | 0.00 | 0.00 | 91 | 1014.7 |
| 20260503042029 | 53 | 162 | 0.0 | 1.7 | 0.00 | 0.00 | 0.00 | 90 | 1014.5 |
| 20260503041044 | 53 | 162 | 1.7 | 2.6 | 0.00 | 0.00 | 0.00 | 90 | 1014.5 |
| 20260503040018 | 53 | 166 | 0.9 | 3.5 | 0.00 | 0.00 | 0.00 | 90 | 1014.6 |
| 20260503035034 | 53 | 179 | 0.9 | 2.6 | 0.00 | 0.00 | 0.00 | 90 | 1014.5 |
| 20260503034028 | 53 | 136 | 0.9 | 1.7 | 0.00 | 0.00 | 0.00 | 90 | 1014.3 |
| 20260503033044 | 53 | 188 | 0.9 | 1.7 | 0.00 | 0.00 | 0.00 | 90 | 1014.4 |
| 20260503032018 | 53 | 187 | 0.9 | 2.6 | 0.00 | 0.00 | 0.00 | 90 | 1014.2 |
| 20260503031033 | 54 | 240 | 0.9 | 3.5 | 0.00 | 0.00 | 0.00 | 89 | 1014.1 |
| 20260503030208 | 54 | 152 | 0.9 | 2.6 | 0.00 | 0.00 | 0.00 | 89 | 1013.8 |
| 20260503025021 | 54 | 160 | 0.9 | 2.6 | 0.00 | 0.00 | 0.00 | 89 | 1013.9 |
| 20260503024036 | 54 | 147 | 0.9 | 2.6 | 0.00 | 0.00 | 0.00 | 88 | 1014.0 |
| 20260503023031 | 54 | 215 | 1.7 | 2.6 | 0.00 | 0.00 | 0.00 | 88 | 1013.8 |
| 20260503022025 | 54 | 156 | 1.7 | 3.5 | 0.00 | 0.00 | 0.00 | 87 | 1013.9 |
| 20260503021021 | 55 | 178 | 1.7 | 3.5 | 0.00 | 0.00 | 0.00 | 87 | 1014.0 |
| 20260503020036 | 55 | 184 | 1.7 | 8.7 | 0.00 | 0.00 | 0.00 | 86 | 1014.0 |
| 20260503015030 | 56 | 201 | 1.7 | 5.2 | 0.00 | 0.00 | 0.00 | 85 | 1014.1 |
| 20260503014025 | 56 | 133 | 0.9 | 3.5 | 0.00 | 0.00 | 0.00 | 84 | 1014.1 |
| 20260503013020 | 56 | 167 | 0.9 | 5.2 | 0.00 | 0.00 | 0.00 | 83 | 1014.1 |
| 20260503012016 | 57 | 271 | 2.6 | 3.5 | 0.00 | 0.00 | 0.00 | 82 | 1014.3 |
| 20260503011031 | 56 | 114 | 1.7 | 2.6 | 0.00 | 0.00 | 0.00 | 82 | 1014.2 |
| 20260503010026 | 57 | 181 | 1.7 | 3.5 | 0.00 | 0.00 | 0.00 | 82 | 1014.3 |
| 20260503005020 | 57 | 227 | 2.6 | 3.5 | 0.00 | 0.00 | 0.00 | 81 | 1014.3 |
| 20260503004015 | 58 | 0.0 | 0.0 | 0.00 | 0.00 | 0.00 | 81 | 1014.5 | |
| 20260503003031 | 59 | 192 | 3.5 | 5.2 | 0.00 | 0.00 | 0.00 | 79 | 1014.5 |
| 20260503002026 | 60 | 255 | 2.6 | 5.2 | 0.00 | 0.00 | 0.00 | 79 | 1014.4 |
| 20260503001020 | 60 | 187 | 2.6 | 5.2 | 0.00 | 0.00 | 0.00 | 78 | 1014.5 |
| 20260503000016 | 60 | 144 | 3.5 | 7.0 | 0.00 | 0.00 | 0.00 | 77 | 1014.5 |
| 20260502235051 | 59 | 173 | 1.7 | 6.1 | 0.00 | 0.00 | 0.00 | 81 | 1014.5 |
| 20260502234025 | 58 | 171 | 2.6 | 9.6 | 0.00 | 0.00 | 0.00 | 81 | 1014.8 |
| 20260502233019 | 58 | 191 | 3.5 | 7.8 | 0.00 | 0.00 | 0.00 | 80 | 1014.8 |
| 20260502232034 | 60 | 178 | 3.5 | 7.8 | 0.00 | 0.00 | 0.00 | 78 | 1014.9 |
| 20260502231028 | 59 | 156 | 3.5 | 7.0 | 0.00 | 0.00 | 0.00 | 80 | 1014.9 |
| 20260502230043 | 59 | 149 | 3.5 | 7.0 | 0.00 | 0.00 | 0.00 | 79 | 1015.2 |
| 20260502225017 | 59 | 202 | 3.5 | 8.7 | 0.00 | 0.00 | 0.00 | 78 | 1015.3 |
| 20260502224112 | 59 | 181 | 4.3 | 8.7 | 0.00 | 0.00 | 0.00 | 77 | 1015.4 |
| 20260502223027 | 59 | 147 | 5.2 | 12.2 | 0.00 | 0.00 | 0.00 | 77 | 1015.5 |
| 20260502222021 | 60 | 215 | 3.5 | 7.0 | 0.00 | 0.00 | 0.00 | 76 | 1015.6 |
| 20260502221016 | 59 | 220 | 4.3 | 8.7 | 0.00 | 0.00 | 0.00 | 78 | 1015.7 |
| 20260502220030 | 60 | 184 | 3.5 | 7.0 | 0.00 | 0.00 | 0.00 | 78 | 1015.9 |
| 20260502215026 | 59 | 192 | 2.6 | 5.2 | 0.00 | 0.00 | 0.00 | 80 | 1015.8 |
| 20260502214021 | 60 | 219 | 3.5 | 9.6 | 0.00 | 0.00 | 0.00 | 77 | 1015.9 |
| 20260502213016 | 60 | 159 | 3.5 | 7.0 | 0.00 | 0.00 | 0.00 | 76 | 1015.8 |
| 20260502212031 | 60 | 176 | 3.5 | 6.1 | 0.00 | 0.00 | 0.00 | 78 | 1015.9 |
| 20260502211046 | 59 | 173 | 4.3 | 7.0 | 0.00 | 0.00 | 0.00 | 81 | 1016.0 |
| 20260502210021 | 59 | 145 | 2.6 | 8.7 | 0.00 | 0.00 | 0.00 | 80 | 1016.2 |
| 20260502205036 | 58 | 128 | 2.6 | 7.0 | 0.00 | 0.00 | 0.00 | 82 | 1016.3 |
| 20260502204051 | 58 | 166 | 3.5 | 7.0 | 0.00 | 0.00 | 0.00 | 81 | 1016.3 |
| 20260502203025 | 58 | 152 | 2.6 | 6.1 | 0.00 | 0.00 | 0.00 | 83 | 1016.4 |
| 20260502202040 | 58 | 164 | 2.6 | 6.1 | 0.00 | 0.00 | 0.00 | 84 | 1016.4 |
| 20260502201035 | 57 | 159 | 2.6 | 7.0 | 0.00 | 0.00 | 0.00 | 86 | 1016.6 |
| 20260502200030 | 57 | 176 | 3.5 | 7.8 | 0.00 | 0.00 | 0.00 | 86 | 1016.5 |
| 20260502195045 | 56 | 191 | 2.6 | 7.0 | 0.00 | 0.00 | 0.00 | 88 | 1016.5 |